sat.trackr.live / text

‹ back to catalog

STARLINK-34633

NORAD 64804 · 2025-150Q

PAYLOAD ACTIVE UNKNOWN

§ Identity

Operator
Country
US
Launch date
2025-07-16
Launch site
AFWTR
Launch vehicle
Mass (kg)
RCS (m²)

Purposes: comms

External: N2YO · Heavens-Above · Gunter

§ Orbital elements

Epoch: 2026-05-24T20:08:52.599552Z

Period
96.11 min
Inclination
70.0005°
Eccentricity
0.0002707
Mean motion
14.98338765 rev/d
Perigee alt
570.1 km
Apogee alt
573.9 km
Semi-major
6,950.2 km
B*
7.7430e-5
RAAN
302.4362°
Arg perigee
267.9107°
Mean anomaly
92.1742°
Rev number
4,792

§ Raw data

STARLINK-346331 64804U 25150Q   26144.83949768  .00000831  00000+0  77430-4 0  99922 64804  70.0005 302.4362 0002707 267.9107  92.1742 14.98338765 47925

JSON: /api/v1/satellites/64804 · /tle

For live sub-satellite position, see the globe view (requires WebGL).

§ Visibility from observer

Set your observer location to see the next 7 days of passes ≥ 10°. The values pass through the URL so the page stays shareable.

No JS? Fill the form by hand. The geolocation button needs JavaScript.